Alfonso Bonilla Aragón International Airport

Airport
ICAO code: 
SKCL
IATA Code: 
CLO
Summary
ICAO Region: 
CARSAM
Territory: 
Location: 
Palmira, Valle del Cauca Department
Serving: 
Cali
Elevation: 
3162 ft
Coordinates: 
Aerial View: 
3° 32' 38.261" N, 76° 23' 2.632" W
Metar
Observation
SKCL 211200Z 13004KT 100V160 9999 BKN030 21/20 Q1015 NOSIG RMK A2998
Station
Cali / Alfonso Bonillaaragon
Date/Time
2022-01-21 12:00:00
Wind direction
130°
Wind speed
04 kts
Lowest cloud amount
broken clouds
Temperature
21°C
Dew point
20°C
Humidity
94%
QNH
1015 hPa
Weather condition
n/a

Alfonso Bonilla Aragón International Airport also known as Palmaseca International Airport is an airport located in Palmira, Colombia, serving Cali and its suburbs.

Climatology

Tropical savanna climate (Köppen climate classification Aw)

Runways

Designator Length Width Surface Rops
1/19 3000 45 ASP Yes/Yes
Airport map: 
Aerial View: 

SKYbrary Partners:

Safety knowledge contributed by: